Location: Krakow
(50.0830°N, 19.9170°E)
Time: 06:38:27
(UTC+01:00)

Vanguard 2 - Pass Details

Date: 12 December 2023
Orbit: 553 x 2919 km, 32.9° (Epoch: 24 February)

Event Time Altitude Azimuth Distance (km) Brightness Sun altitude
Rises 20:19:12 0° 247° (WSW) 6,553 12.8 -43.7°
Reaches altitude 10° 20:23:45 10° 241° (WSW) 5,670 12.3 -44.4°
Enters shadow 20:37:38 41° 193° (SSW) 3,714 10.7 -46.4°
